owner,sensor,date,latitude,longitude,vertical_datum,direction_of_sea_water_velocity,sea_water_speed,upward_sea_water_velocity,qcFlag 
TABS,ioos:station:wmo:42050:1,2004-04-01T00:00:00Z,28.8425,-94.2433,2.0,335.6899633,23.41634472,-99999.0,'11111222,11111222,99999999' 
TABS,ioos:station:wmo:42050:1,2004-04-01T00:30:00Z,28.8425,-94.2433,2.0,340.203925,25.42240154,-99999.0,'11111222,11111222,99999999' 
TABS,ioos:station:wmo:42050:1,2004-04-01T01:00:00Z,28.8425,-94.2433,2.0,343.9413544,22.88294124,-99999.0,'11111222,11111222,99999999' 
TABS,ioos:station:wmo:42050:1,2004-04-01T01:30:00Z,28.8425,-94.2433,2.0,347.9648337,22.92389147,-99999.0,'11111222,11111222,99999999' 
TABS,ioos:station:wmo:42050:1,2004-04-01T02:00:00Z,28.8425,-94.2433,2.0,354.8817014,21.18447781,-99999.0,'11111222,11111222,99999999' 
TABS,ioos:station:wmo:42050:1,2004-04-01T08:30:00Z,28.8425,-94.2433,2.0,163.7035614,3.813200755,-99999.0,'11133222,11111222,99999999' 
TABS,ioos:station:wmo:42050:1,2004-04-01T09:00:00Z,28.8425,-94.2433,2.0,174.7080692,6.397265041,-99999.0,'11133222,11111222,99999999' 
TABS,ioos:station:wmo:42050:1,2004-04-01T09:30:00Z,28.8425,-94.2433,2.0,185.003188,5.159660842,-99999.0,'11133222,11111222,99999999' 
TABS,ioos:station:wmo:42050:1,2004-04-01T10:00:00Z,28.8425,-94.2433,2.0,215.0996873,6.086903975,-99999.0,'11133222,11111222,99999999' 
TABS,ioos:station:wmo:42050:1,2004-04-01T10:30:00Z,28.8425,-94.2433,2.0,227.0876633,5.434188072,-99999.0,'11133222,11111222,99999999' 
TABS,ioos:station:wmo:42050:1,2004-04-01T11:00:00Z,28.8425,-94.2433,2.0,242.004961,5.198240087,-99999.0,'11133222,11111222,99999999' 
TABS,ioos:station:wmo:42050:1,2004-04-01T11:30:00Z,28.8425,-94.2433,2.0,250.5788035,8.270580391,-99999.0,'11133222,11111222,99999999' 
TABS,ioos:station:wmo:42050:1,2004-04-01T12:00:00Z,28.8425,-94.2433,2.0,260.0284037,7.219044258,-99999.0,'11133222,11111222,99999999' 
TABS,ioos:station:wmo:42050:1,2004-04-01T12:30:00Z,28.8425,-94.2433,2.0,269.817881,9.460047569,-99999.0,'11133222,11111222,99999999' 
TABS,ioos:station:wmo:42050:1,2004-04-01T13:00:00Z,28.8425,-94.2433,2.0,279.2177856,9.614140627,-99999.0,'11133222,11111222,99999999' 
TABS,ioos:station:wmo:42050:1,2004-04-01T13:30:00Z,28.8425,-94.2433,2.0,281.9564578,12.69540468,-99999.0,'11111222,11111222,99999999' 
TABS,ioos:station:wmo:42050:1,2004-04-01T14:00:00Z,28.8425,-94.2433,2.0,282.4692314,16.58108863,-99999.0,'11111222,11111222,99999999' 
TABS,ioos:station:wmo:42050:1,2004-04-01T16:30:00Z,28.8425,-94.2433,2.0,305.7650698,22.29414721,-99999.0,'11111222,11111222,99999999' 
TABS,ioos:station:wmo:42050:1,2004-04-01T17:00:00Z,28.8425,-94.2433,2.0,303.0872415,21.34049906,-99999.0,'11111222,11111222,99999999' 
TABS,ioos:station:wmo:42050:1,2004-04-01T17:30:00Z,28.8425,-94.2433,2.0,307.866621,23.11749554,-99999.0,'11111222,11111222,99999999' 
TABS,ioos:station:wmo:42050:1,2004-04-01T18:00:00Z,28.8425,-94.2433,2.0,307.8337573,21.76507753,-99999.0,'11111222,11111222,99999999' 
TABS,ioos:station:wmo:42050:1,2004-04-01T18:30:00Z,28.8425,-94.2433,2.0,308.9673615,23.00941112,-99999.0,'11111222,11111222,99999999' 
TABS,ioos:station:wmo:42050:1,2004-04-01T19:00:00Z,28.8425,-94.2433,2.0,301.4962474,18.83478696,-99999.0,'11111222,11111222,99999999' 
TABS,ioos:station:wmo:42050:1,2004-04-01T19:30:00Z,28.8425,-94.2433,2.0,305.4983297,18.46129194,-99999.0,'11111222,11111222,99999999' 
TABS,ioos:station:wmo:42050:1,2004-04-01T20:00:00Z,28.8425,-94.2433,2.0,299.9184456,16.82166757,-99999.0,'11111222,11111222,99999999' 
TABS,ioos:station:wmo:42050:1,2004-04-01T20:30:00Z,28.8425,-94.2433,2.0,295.101357,15.22812201,-99999.0,'11111222,11111222,99999999' 
TABS,ioos:station:wmo:42050:1,2004-04-01T21:00:00Z,28.8425,-94.2433,2.0,292.8557562,15.34474503,-99999.0,'11111222,11111222,99999999' 
TABS,ioos:station:wmo:42050:1,2004-04-01T21:30:00Z,28.8425,-94.2433,2.0,292.8597278,17.29861266,-99999.0,'11111222,11111222,99999999' 
TABS,ioos:station:wmo:42050:1,2004-04-01T22:00:00Z,28.8425,-94.2433,2.0,290.6566553,16.72520553,-99999.0,'11111222,11111222,99999999' 
TABS,ioos:station:wmo:42050:1,2004-04-01T22:30:00Z,28.8425,-94.2433,2.0,284.5969623,17.85632661,-99999.0,'11111222,11111222,99999999' 
TABS,ioos:station:wmo:42050:1,2004-04-01T23:00:00Z,28.8425,-94.2433,2.0,284.862052,18.51951673,-99999.0,'11111222,11111222,99999999' 
TABS,ioos:station:wmo:42050:1,2004-04-01T23:30:00Z,28.8425,-94.2433,2.0,288.7387673,19.70442844,-99999.0,'11111222,11111222,99999999' 
TABS,ioos:station:wmo:42050:1,2004-04-02T00:00:00Z,28.8425,-94.2433,2.0,287.7067939,19.39897935,-99999.0,'11111222,11111222,99999999' 
TABS,ioos:station:wmo:42050:1,2004-04-02T04:30:00Z,28.8425,-94.2433,2.0,313.420514,22.82701251,-99999.0,'11111222,11111222,99999999' 
TABS,ioos:station:wmo:42050:1,2004-04-02T05:00:00Z,28.8425,-94.2433,2.0,317.1952417,20.30886506,-99999.0,'11111222,11111222,99999999' 
TABS,ioos:station:wmo:42050:1,2004-04-02T05:30:00Z,28.8425,-94.2433,2.0,316.8583381,20.06409729,-99999.0,'11111222,11111222,99999999' 
TABS,ioos:station:wmo:42050:1,2004-04-02T06:00:00Z,28.8425,-94.2433,2.0,318.336452,18.83388701,-99999.0,'11111222,11111222,99999999' 
TABS,ioos:station:wmo:42050:1,2004-04-02T10:30:00Z,28.8425,-94.2433,2.0,276.9081183,14.7168271,-99999.0,'11111222,11111222,99999999' 
TABS,ioos:station:wmo:42050:1,2004-04-02T11:00:00Z,28.8425,-94.2433,2.0,290.2008527,15.08806482,-99999.0,'11111222,11111222,99999999' 
TABS,ioos:station:wmo:42050:1,2004-04-02T11:30:00Z,28.8425,-94.2433,2.0,287.9704404,15.97951501,-99999.0,'11111222,11111222,99999999' 
TABS,ioos:station:wmo:42050:1,2004-04-02T12:00:00Z,28.8425,-94.2433,2.0,307.1049562,15.134127,-99999.0,'11111222,11111222,99999999' 
TABS,ioos:station:wmo:42050:1,2004-04-02T12:30:00Z,28.8425,-94.2433,2.0,301.3971211,16.56552142,-99999.0,'11111222,11111222,99999999' 
TABS,ioos:station:wmo:42050:1,2004-04-02T13:00:00Z,28.8425,-94.2433,2.0,302.2963218,18.80990431,-99999.0,'11111222,11111222,99999999' 
TABS,ioos:station:wmo:42050:1,2004-04-02T13:30:00Z,28.8425,-94.2433,2.0,303.8939129,17.17917344,-99999.0,'11111222,11111222,99999999' 
TABS,ioos:station:wmo:42050:1,2004-04-02T14:00:00Z,28.8425,-94.2433,2.0,310.9635076,21.29431849,-99999.0,'11111222,11111222,99999999' 
TABS,ioos:station:wmo:42050:1,2004-04-02T22:30:00Z,28.8425,-94.2433,2.0,324.8180759,10.1183892,-99999.0,'11111222,11111222,99999999' 
TABS,ioos:station:wmo:42050:1,2004-04-02T23:00:00Z,28.8425,-94.2433,2.0,331.4129469,9.885104956,-99999.0,'11133222,11111222,99999999' 
TABS,ioos:station:wmo:42050:1,2004-04-02T23:30:00Z,28.8425,-94.2433,2.0,332.5435324,8.046346997,-99999.0,'11133222,11111222,99999999' 
TABS,ioos:station:wmo:42050:1,2004-04-03T00:00:00Z,28.8425,-94.2433,2.0,322.7028275,6.700186565,-99999.0,'11133222,11111222,99999999' 
TABS,ioos:station:wmo:42050:1,2004-04-03T00:30:00Z,28.8425,-94.2433,2.0,328.6246465,9.065649453,-99999.0,'11133222,11111222,99999999' 
TABS,ioos:station:wmo:42050:1,2004-04-03T01:00:00Z,28.8425,-94.2433,2.0,329.6668791,8.573733143,-99999.0,'11133222,11111222,99999999' 
TABS,ioos:station:wmo:42050:1,2004-04-03T01:30:00Z,28.8425,-94.2433,2.0,342.6357818,9.817423287,-99999.0,'11133222,11111222,99999999' 
TABS,ioos:station:wmo:42050:1,2004-04-03T02:00:00Z,28.8425,-94.2433,2.0,328.3534651,10.50160464,-99999.0,'11111222,11111222,99999999' 
TABS,ioos:station:wmo:42050:1,2004-04-03T04:30:00Z,28.8425,-94.2433,2.0,1.832733972,14.6975168,-99999.0,'11111222,11111222,99999999' 
TABS,ioos:station:wmo:42050:1,2004-04-03T05:00:00Z,28.8425,-94.2433,2.0,10.4367749,16.72672712,-99999.0,'11111222,11111222,99999999' 
TABS,ioos:station:wmo:42050:1,2004-04-03T05:30:00Z,28.8425,-94.2433,2.0,14.29132569,19.08046645,-99999.0,'11111222,11111222,99999999' 
TABS,ioos:station:wmo:42050:1,2004-04-03T06:00:00Z,28.8425,-94.2433,2.0,11.56679013,15.76005076,-99999.0,'11111222,11111222,99999999' 
TABS,ioos:station:wmo:42050:1,2004-04-03T06:30:00Z,28.8425,-94.2433,2.0,26.83063079,13.51493988,-99999.0,'11111222,11111222,99999999' 
TABS,ioos:station:wmo:42050:1,2004-04-03T07:00:00Z,28.8425,-94.2433,2.0,37.84757658,12.77785976,-99999.0,'11111222,11111222,99999999' 
TABS,ioos:station:wmo:42050:1,2004-04-03T07:30:00Z,28.8425,-94.2433,2.0,33.39120311,8.503669796,-99999.0,'11133222,11111222,99999999' 
TABS,ioos:station:wmo:42050:1,2004-04-03T08:00:00Z,28.8425,-94.2433,2.0,44.76087637,6.774142012,-99999.0,'11133222,11111222,99999999' 
TABS,ioos:station:wmo:42050:1,2004-04-03T18:30:00Z,28.8425,-94.2433,2.0,327.3995394,13.56764534,-99999.0,'11111222,11111222,99999999' 
TABS,ioos:station:wmo:42050:1,2004-04-03T19:00:00Z,28.8425,-94.2433,2.0,326.7912052,13.87631435,-99999.0,'11111222,11111222,99999999' 
TABS,ioos:station:wmo:42050:1,2004-04-03T19:30:00Z,28.8425,-94.2433,2.0,320.8380329,13.00040384,-99999.0,'11111222,11111222,99999999' 
TABS,ioos:station:wmo:42050:1,2004-04-03T20:00:00Z,28.8425,-94.2433,2.0,312.9130156,12.42503924,-99999.0,'11111222,11111222,99999999' 
TABS,ioos:station:wmo:42050:1,2004-04-04T00:30:00Z,28.8425,-94.2433,2.0,293.4732989,10.69503156,-99999.0,'11111222,11111222,99999999' 
TABS,ioos:station:wmo:42050:1,2004-04-04T01:00:00Z,28.8425,-94.2433,2.0,306.9421859,11.14800879,-99999.0,'11111222,11111222,99999999' 
TABS,ioos:station:wmo:42050:1,2004-04-04T01:30:00Z,28.8425,-94.2433,2.0,312.247159,11.48252585,-99999.0,'11111222,11111222,99999999' 
TABS,ioos:station:wmo:42050:1,2004-04-04T02:00:00Z,28.8425,-94.2433,2.0,322.6715192,12.23639244,-99999.0,'11111222,11111222,99999999' 
TABS,ioos:station:wmo:42050:1,2004-04-04T04:30:00Z,28.8425,-94.2433,2.0,355.7928584,16.76518118,-99999.0,'11111222,11111222,99999999' 
TABS,ioos:station:wmo:42050:1,2004-04-04T05:00:00Z,28.8425,-94.2433,2.0,8.574924595,18.04166567,-99999.0,'11111222,11111222,99999999' 
TABS,ioos:station:wmo:42050:1,2004-04-04T05:30:00Z,28.8425,-94.2433,2.0,18.24664433,19.2267522,-99999.0,'11111222,11111222,99999999' 
TABS,ioos:station:wmo:42050:1,2004-04-04T06:00:00Z,28.8425,-94.2433,2.0,27.61492696,17.81998036,-99999.0,'11111222,11111222,99999999' 
TABS,ioos:station:wmo:42050:1,2004-04-04T08:30:00Z,28.8425,-94.2433,2.0,76.844362,7.732948985,-99999.0,'11133222,11111222,99999999' 
TABS,ioos:station:wmo:42050:1,2004-04-04T09:00:00Z,28.8425,-94.2433,2.0,90.84075625,4.770513599,-99999.0,'11133222,11111222,99999999' 
TABS,ioos:station:wmo:42050:1,2004-04-04T09:30:00Z,28.8425,-94.2433,2.0,135.8670684,7.008230875,-99999.0,'11133222,11111222,99999999' 
TABS,ioos:station:wmo:42050:1,2004-04-04T10:00:00Z,28.8425,-94.2433,2.0,155.8010429,8.123853765,-99999.0,'11133222,11111222,99999999' 
TABS,ioos:station:wmo:42050:1,2004-04-04T16:30:00Z,28.8425,-94.2433,2.0,307.488842,13.52278817,-99999.0,'11111222,11111222,99999999' 
TABS,ioos:station:wmo:42050:1,2004-04-04T17:00:00Z,28.8425,-94.2433,2.0,301.7433741,15.51005158,-99999.0,'11111222,11111222,99999999' 
TABS,ioos:station:wmo:42050:1,2004-04-04T17:30:00Z,28.8425,-94.2433,2.0,317.7685867,10.10220273,-99999.0,'11111222,11111222,99999999' 
TABS,ioos:station:wmo:42050:1,2004-04-04T18:00:00Z,28.8425,-94.2433,2.0,309.3325405,12.24330429,-99999.0,'11111222,11111222,99999999' 
TABS,ioos:station:wmo:42050:1,2004-04-05T00:30:00Z,28.8425,-94.2433,2.0,293.4308595,9.732512522,-99999.0,'11133222,11111222,99999999' 
TABS,ioos:station:wmo:42050:1,2004-04-05T01:00:00Z,28.8425,-94.2433,2.0,293.9677264,11.9394556,-99999.0,'11111222,11111222,99999999' 
TABS,ioos:station:wmo:42050:1,2004-04-05T01:30:00Z,28.8425,-94.2433,2.0,297.6424981,12.6091792,-99999.0,'11111222,11111222,99999999' 
TABS,ioos:station:wmo:42050:1,2004-04-05T02:00:00Z,28.8425,-94.2433,2.0,296.6103301,11.40842233,-99999.0,'11111222,11111222,99999999' 
TABS,ioos:station:wmo:42050:1,2004-04-05T04:30:00Z,28.8425,-94.2433,2.0,346.6486053,12.99113544,-99999.0,'11111222,11111222,99999999' 
TABS,ioos:station:wmo:42050:1,2004-04-05T05:00:00Z,28.8425,-94.2433,2.0,341.8335966,12.15592859,-99999.0,'11111222,11111222,99999999' 
TABS,ioos:station:wmo:42050:1,2004-04-05T05:30:00Z,28.8425,-94.2433,2.0,343.3671474,13.27548116,-99999.0,'11111222,11111222,99999999' 
TABS,ioos:station:wmo:42050:1,2004-04-05T06:00:00Z,28.8425,-94.2433,2.0,352.9109058,13.93654548,-99999.0,'11111222,11111222,99999999' 
TABS,ioos:station:wmo:42050:1,2004-04-05T08:30:00Z,28.8425,-94.2433,2.0,22.29874189,5.350084111,-99999.0,'11133222,11111222,99999999' 
TABS,ioos:station:wmo:42050:1,2004-04-05T09:00:00Z,28.8425,-94.2433,2.0,48.90864038,2.282191929,-99999.0,'11133222,11111222,99999999' 
TABS,ioos:station:wmo:42050:1,2004-04-05T09:30:00Z,28.8425,-94.2433,2.0,138.9225985,2.480685389,-99999.0,'11133222,11111222,99999999' 
TABS,ioos:station:wmo:42050:1,2004-04-05T10:00:00Z,28.8425,-94.2433,2.0,170.9403285,5.144171459,-99999.0,'11133222,11111222,99999999' 
TABS,ioos:station:wmo:42050:1,2004-04-05T14:30:00Z,28.8425,-94.2433,2.0,237.842902,12.43805853,-99999.0,'11111222,11111222,99999999' 
TABS,ioos:station:wmo:42050:1,2004-04-05T15:00:00Z,28.8425,-94.2433,2.0,243.1906505,8.403219621,-99999.0,'11133222,11111222,99999999' 
TABS,ioos:station:wmo:42050:1,2004-04-05T15:30:00Z,28.8425,-94.2433,2.0,245.2244964,6.299841268,-99999.0,'11133222,11111222,99999999' 
TABS,ioos:station:wmo:42050:1,2004-04-05T16:00:00Z,28.8425,-94.2433,2.0,255.7889235,7.169386306,-99999.0,'11133222,11111222,99999999' 
TABS,ioos:station:wmo:42050:1,2004-04-05T16:30:00Z,28.8425,-94.2433,2.0,245.778347,8.092391488,-99999.0,'11133222,11111222,99999999' 
TABS,ioos:station:wmo:42050:1,2004-04-05T17:00:00Z,28.8425,-94.2433,2.0,283.85674,6.179838186,-99999.0,'11133222,11111222,99999999' 
TABS,ioos:station:wmo:42050:1,2004-04-05T17:30:00Z,28.8425,-94.2433,2.0,277.0138541,11.4657926,-99999.0,'11111222,11111222,99999999' 
TABS,ioos:station:wmo:42050:1,2004-04-05T18:00:00Z,28.8425,-94.2433,2.0,285.7068416,7.905169195,-99999.0,'11133222,11111222,99999999' 
TABS,ioos:station:wmo:42050:1,2004-04-05T20:30:00Z,28.8425,-94.2433,2.0,273.5525902,8.877054692,-99999.0,'11133222,11111222,99999999' 
TABS,ioos:station:wmo:42050:1,2004-04-05T21:00:00Z,28.8425,-94.2433,2.0,259.4655155,10.28331172,-99999.0,'11111222,11111222,99999999' 
TABS,ioos:station:wmo:42050:1,2004-04-05T21:30:00Z,28.8425,-94.2433,2.0,257.3433072,12.18609864,-99999.0,'11111222,11111222,99999999' 
TABS,ioos:station:wmo:42050:1,2004-04-05T22:00:00Z,28.8425,-94.2433,2.0,257.6817224,12.37488182,-99999.0,'11111222,11111222,99999999' 
TABS,ioos:station:wmo:42050:1,2004-04-05T22:30:00Z,28.8425,-94.2433,2.0,264.9117535,9.246431744,-99999.0,'11133222,11111222,99999999' 
TABS,ioos:station:wmo:42050:1,2004-04-05T23:00:00Z,28.8425,-94.2433,2.0,245.6575571,12.56721528,-99999.0,'11111222,11111222,99999999' 
TABS,ioos:station:wmo:42050:1,2004-04-05T23:30:00Z,28.8425,-94.2433,2.0,247.0624046,15.83178133,-99999.0,'11111222,11111222,99999999' 
TABS,ioos:station:wmo:42050:1,2004-04-06T00:00:00Z,28.8425,-94.2433,2.0,242.6837257,18.08687093,-99999.0,'11111222,11111222,99999999' 
TABS,ioos:station:wmo:42050:1,2004-04-06T00:30:00Z,28.8425,-94.2433,2.0,266.1829506,29.74597116,-99999.0,'11111222,11111222,99999999' 
TABS,ioos:station:wmo:42050:1,2004-04-06T01:00:00Z,28.8425,-94.2433,2.0,282.6976727,51.27390467,-99999.0,'11111222,11111222,99999999' 
TABS,ioos:station:wmo:42050:1,2004-04-06T01:30:00Z,28.8425,-94.2433,2.0,281.1603387,52.44163422,-99999.0,'11111222,11111222,99999999' 
TABS,ioos:station:wmo:42050:1,2004-04-06T02:00:00Z,28.8425,-94.2433,2.0,284.8839553,49.36624859,-99999.0,'11111222,11111222,99999999' 
TABS,ioos:station:wmo:42050:1,2004-04-06T08:30:00Z,28.8425,-94.2433,2.0,292.3012164,27.90735566,-99999.0,'11111222,11111222,99999999' 
TABS,ioos:station:wmo:42050:1,2004-04-06T09:00:00Z,28.8425,-94.2433,2.0,292.8785365,27.4710484,-99999.0,'11111222,11111222,99999999' 
TABS,ioos:station:wmo:42050:1,2004-04-06T09:30:00Z,28.8425,-94.2433,2.0,287.2359724,22.51086182,-99999.0,'11111222,11111222,99999999' 
TABS,ioos:station:wmo:42050:1,2004-04-06T10:00:00Z,28.8425,-94.2433,2.0,280.5146684,24.71497724,-99999.0,'11111222,11111222,99999999' 
TABS,ioos:station:wmo:42050:1,2004-04-06T16:30:00Z,28.8425,-94.2433,2.0,272.4252117,47.272327,-99999.0,'11111222,11111222,99999999' 
TABS,ioos:station:wmo:42050:1,2004-04-06T17:00:00Z,28.8425,-94.2433,2.0,277.6789205,42.88452984,-99999.0,'11111222,11111222,99999999' 
TABS,ioos:station:wmo:42050:1,2004-04-06T17:30:00Z,28.8425,-94.2433,2.0,274.469895,42.21838699,-99999.0,'11111222,11111222,99999999' 
TABS,ioos:station:wmo:42050:1,2004-04-06T18:00:00Z,28.8425,-94.2433,2.0,275.0626094,40.79913725,-99999.0,'11111222,11111222,99999999' 
TABS,ioos:station:wmo:42050:1,2004-04-07T00:30:00Z,28.8425,-94.2433,2.0,238.3512612,44.06284716,-99999.0,'11111222,11111222,99999999' 
TABS,ioos:station:wmo:42050:1,2004-04-07T01:00:00Z,28.8425,-94.2433,2.0,242.0032424,42.96827318,-99999.0,'11111222,11111222,99999999' 
TABS,ioos:station:wmo:42050:1,2004-04-07T01:30:00Z,28.8425,-94.2433,2.0,241.2650473,46.78077062,-99999.0,'11111222,11111222,99999999' 
TABS,ioos:station:wmo:42050:1,2004-04-07T02:00:00Z,28.8425,-94.2433,2.0,241.4684021,44.44789534,-99999.0,'11111222,11111222,99999999' 
TABS,ioos:station:wmo:42050:1,2004-04-07T06:30:00Z,28.8425,-94.2433,2.0,266.3113741,29.07020812,-99999.0,'11111222,11111222,99999999' 
TABS,ioos:station:wmo:42050:1,2004-04-07T07:00:00Z,28.8425,-94.2433,2.0,269.8181495,31.58015833,-99999.0,'11111222,11111222,99999999' 
TABS,ioos:station:wmo:42050:1,2004-04-07T07:30:00Z,28.8425,-94.2433,2.0,273.5688493,27.15264444,-99999.0,'11111222,11111222,99999999' 
TABS,ioos:station:wmo:42050:1,2004-04-07T08:00:00Z,28.8425,-94.2433,2.0,285.4184295,23.13249878,-99999.0,'11111222,11111222,99999999' 
TABS,ioos:station:wmo:42050:1,2004-04-07T08:30:00Z,28.8425,-94.2433,2.0,276.9820781,18.8396948,-99999.0,'11111222,11111222,99999999' 
TABS,ioos:station:wmo:42050:1,2004-04-07T09:00:00Z,28.8425,-94.2433,2.0,252.4434828,15.0510498,-99999.0,'11111222,11111222,99999999' 
TABS,ioos:station:wmo:42050:1,2004-04-07T09:30:00Z,28.8425,-94.2433,2.0,234.6451366,17.09197765,-99999.0,'11111222,11111222,99999999' 
TABS,ioos:station:wmo:42050:1,2004-04-07T10:00:00Z,28.8425,-94.2433,2.0,217.2694515,17.76843268,-99999.0,'11111222,11111222,99999999' 
TABS,ioos:station:wmo:42050:1,2004-04-07T12:30:00Z,28.8425,-94.2433,2.0,200.6474647,42.42512935,-99999.0,'11111222,11111222,99999999' 
TABS,ioos:station:wmo:42050:1,2004-04-07T14:30:00Z,28.8425,-94.2433,2.0,199.4825014,39.42754621,-99999.0,'11111222,11111222,99999999' 
TABS,ioos:station:wmo:42050:1,2004-04-07T15:00:00Z,28.8425,-94.2433,2.0,200.9872895,38.6972415,-99999.0,'11111222,11111222,99999999' 
TABS,ioos:station:wmo:42050:1,2004-04-07T15:30:00Z,28.8425,-94.2433,2.0,200.2440346,37.85868989,-99999.0,'11111222,11111222,99999999' 
TABS,ioos:station:wmo:42050:1,2004-04-07T16:00:00Z,28.8425,-94.2433,2.0,202.5059016,43.0270078,-99999.0,'11111222,11111222,99999999' 
TABS,ioos:station:wmo:42050:1,2004-04-07T16:30:00Z,28.8425,-94.2433,2.0,199.8962635,42.40096461,-99999.0,'11111222,11111222,99999999' 
TABS,ioos:station:wmo:42050:1,2004-04-07T17:00:00Z,28.8425,-94.2433,2.0,197.7838749,43.15206252,-99999.0,'11111222,11111222,99999999' 
TABS,ioos:station:wmo:42050:1,2004-04-07T17:30:00Z,28.8425,-94.2433,2.0,198.0116295,44.11181361,-99999.0,'11111222,11111222,99999999' 
TABS,ioos:station:wmo:42050:1,2004-04-07T18:00:00Z,28.8425,-94.2433,2.0,194.7909157,41.05029233,-99999.0,'11111222,11111222,99999999' 
TABS,ioos:station:wmo:42050:1,2004-04-07T22:30:00Z,28.8425,-94.2433,2.0,193.6932098,48.2411992,-99999.0,'11111222,11111222,99999999' 
TABS,ioos:station:wmo:42050:1,2004-04-07T23:00:00Z,28.8425,-94.2433,2.0,194.2628226,52.07523212,-99999.0,'11111222,11111222,99999999' 
TABS,ioos:station:wmo:42050:1,2004-04-07T23:30:00Z,28.8425,-94.2433,2.0,197.315699,51.16908637,-99999.0,'11111222,11111222,99999999' 
TABS,ioos:station:wmo:42050:1,2004-04-08T00:00:00Z,28.8425,-94.2433,2.0,208.4684964,48.73293034,-99999.0,'11111222,11111222,99999999' 
TABS,ioos:station:wmo:42050:1,2004-04-08T02:30:00Z,28.8425,-94.2433,2.0,295.0292593,20.18553195,-99999.0,'11111222,11111222,99999999' 
TABS,ioos:station:wmo:42050:1,2004-04-08T03:00:00Z,28.8425,-94.2433,2.0,305.4777497,15.47256928,-99999.0,'11111222,11111222,99999999' 
TABS,ioos:station:wmo:42050:1,2004-04-08T03:30:00Z,28.8425,-94.2433,2.0,306.9426324,12.66201011,-99999.0,'11111222,11111222,99999999' 
TABS,ioos:station:wmo:42050:1,2004-04-08T04:00:00Z,28.8425,-94.2433,2.0,282.8881962,12.46398411,-99999.0,'11111222,11111222,99999999' 
TABS,ioos:station:wmo:42050:1,2004-04-08T04:30:00Z,28.8425,-94.2433,2.0,280.3801069,10.26803292,-99999.0,'11111222,11111222,99999999' 
TABS,ioos:station:wmo:42050:1,2004-04-08T05:00:00Z,28.8425,-94.2433,2.0,313.0541251,8.744884219,-99999.0,'11133222,11111222,99999999' 
TABS,ioos:station:wmo:42050:1,2004-04-08T05:30:00Z,28.8425,-94.2433,2.0,335.9551641,9.154370541,-99999.0,'11133222,11111222,99999999' 
TABS,ioos:station:wmo:42050:1,2004-04-08T06:00:00Z,28.8425,-94.2433,2.0,349.4661469,10.28331172,-99999.0,'11111222,11111222,99999999' 
TABS,ioos:station:wmo:42050:1,2004-04-08T06:30:00Z,28.8425,-94.2433,2.0,343.7955628,10.32000484,-99999.0,'11111222,11111222,99999999' 
TABS,ioos:station:wmo:42050:1,2004-04-08T07:00:00Z,28.8425,-94.2433,2.0,17.48951409,11.11375724,-99999.0,'11111222,11111222,99999999' 
TABS,ioos:station:wmo:42050:1,2004-04-08T07:30:00Z,28.8425,-94.2433,2.0,29.52904357,15.1360662,-99999.0,'11111222,11111222,99999999' 
TABS,ioos:station:wmo:42050:1,2004-04-08T08:00:00Z,28.8425,-94.2433,2.0,34.19977953,16.52794603,-99999.0,'11111222,11111222,99999999' 
TABS,ioos:station:wmo:42050:1,2004-04-08T08:30:00Z,28.8425,-94.2433,2.0,70.78551676,13.2480074,-99999.0,'11111222,11111222,99999999' 
TABS,ioos:station:wmo:42050:1,2004-04-08T09:00:00Z,28.8425,-94.2433,2.0,83.96007092,9.69381246,-99999.0,'11133222,11111222,99999999' 
TABS,ioos:station:wmo:42050:1,2004-04-08T09:30:00Z,28.8425,-94.2433,2.0,108.1648575,8.05124835,-99999.0,'11133222,11111222,99999999' 
TABS,ioos:station:wmo:42050:1,2004-04-08T10:00:00Z,28.8425,-94.2433,2.0,137.4499255,11.57885141,-99999.0,'11111222,11111222,99999999' 
TABS,ioos:station:wmo:42050:1,2004-04-08T12:30:00Z,28.8425,-94.2433,2.0,181.396258,19.69584982,-99999.0,'11111222,11111222,99999999' 
TABS,ioos:station:wmo:42050:1,2004-04-08T13:00:00Z,28.8425,-94.2433,2.0,189.0368522,26.80270509,-99999.0,'11111222,11111222,99999999' 
TABS,ioos:station:wmo:42050:1,2004-04-08T13:30:00Z,28.8425,-94.2433,2.0,194.5692431,21.10878964,-99999.0,'11111222,11111222,99999999' 
TABS,ioos:station:wmo:42050:1,2004-04-08T14:00:00Z,28.8425,-94.2433,2.0,197.587078,33.98871725,-99999.0,'11111222,11111222,99999999' 
TABS,ioos:station:wmo:42050:1,2004-04-08T14:30:00Z,28.8425,-94.2433,2.0,202.7377291,35.44469072,-99999.0,'11111222,11111222,99999999' 
TABS,ioos:station:wmo:42050:1,2004-04-08T15:00:00Z,28.8425,-94.2433,2.0,209.8812559,45.76398584,-99999.0,'11111222,11111222,99999999' 
TABS,ioos:station:wmo:42050:1,2004-04-08T15:30:00Z,28.8425,-94.2433,2.0,213.5069488,47.80430629,-99999.0,'11111222,11111222,99999999' 
TABS,ioos:station:wmo:42050:1,2004-04-08T16:00:00Z,28.8425,-94.2433,2.0,218.730782,38.91853158,-99999.0,'11111222,11111222,99999999' 
TABS,ioos:station:wmo:42050:1,2004-04-08T18:30:00Z,28.8425,-94.2433,2.0,249.1737803,36.53714001,-99999.0,'11111222,11111222,99999999' 
TABS,ioos:station:wmo:42050:1,2004-04-08T19:00:00Z,28.8425,-94.2433,2.0,255.3481426,32.30033127,-99999.0,'11111222,11111222,99999999' 
TABS,ioos:station:wmo:42050:1,2004-04-08T19:30:00Z,28.8425,-94.2433,2.0,263.5540984,30.64369593,-99999.0,'11111222,11111222,99999999' 
TABS,ioos:station:wmo:42050:1,2004-04-08T20:00:00Z,28.8425,-94.2433,2.0,265.4039276,32.57472947,-99999.0,'11111222,11111222,99999999' 
TABS,ioos:station:wmo:42050:1,2004-04-08T22:30:00Z,28.8425,-94.2433,2.0,272.9204012,31.80128928,-99999.0,'11111222,11111222,99999999' 
TABS,ioos:station:wmo:42050:1,2004-04-08T23:00:00Z,28.8425,-94.2433,2.0,269.8232251,29.24013851,-99999.0,'11111222,11111222,99999999' 
TABS,ioos:station:wmo:42050:1,2004-04-08T23:30:00Z,28.8425,-94.2433,2.0,281.8969221,26.24367543,-99999.0,'11111222,11111222,99999999' 